ZHEDA PIXING 1C

导读

ZHEDA PIXING 1C(皮星1C)是中国浙江大学研制的微纳试验卫星,属于皮星一号系列,于2010年9月22日由长征二号丁运载火箭发射进入太阳同步轨道。卫星为边长15厘米的立方体,发射质量约3.5千克,主要用于验证微纳卫星平台技术、姿控系统及新型器件的空间适应性,圆满完成既定试验任务,推动了中国微小卫星技术发展。

基本信息
目录编号:
37167
目录名称:
ZHEDA PIXING 1C
国际标识:
2010-047C
轨道中心:
EARTH
卫星名称:
ZHEDA PIXING 1C
卫星全名:
--
卫星状态:
在轨 (已飞行5745 天)
发射日期:
2010-09-22 UTC
国别 :
中国 (CN)
星等 :
--
轨道信息
数据来源 国际轨道数据
星历时间: 2026-06-15T05:01:46+0800
6小时前
查看轨道信息
半长轴: 6973.13km
偏心率: 0.0017769
轨道倾角: 97.976°
近地点辐角 297.826°
升交点赤经 147.463°
平近点角 62.116°
近地点: 582.602km
远地点: 607.384km
周期: 96.583分钟
每日圈数: 14.909433
详细信息
使用方式:
暂无
2D轨道图
3D轨道图
轨道高度分析图
轨道倾角分析图
轨道综合分析图
查看轨道综合分析图